This demonstration page uses our WeatherBlox Daily Observations layout. Learn more.

Left ArrowRight Arrow

Hourly Observations for September 13, 2015

Temp ( °F °C ) Dew Point ( °F °C ) Humidity (%) Winds ( mph kmh ) Pressure ( in mb ) Visibility ( mi km ) Precip ( " mm )
12:15 am 00:15 Cloudy 64 18 59 15 83 83 WNW 12 19 29.74 1007 10 16 0.00 0.00
12:35 am 00:35 Cloudy 64 18 57 14 78 78 WNW 17 28 29.74 1007 10 16 0.00 0.00
12:55 am 00:55 Cloudy 64 18 57 14 78 78 WNW 14 22 29.74 1007 10 16 0.00 0.00
1:15 am 01:15 Cloudy 64 18 57 14 78 78 WNW 12 19 29.77 1008 10 16 0.00 0.00
1:35 am 01:35 Mostly Cloudy 64 18 57 14 78 78 W 10 17 29.77 1008 10 16 0.00 0.00
1:55 am 01:55 Partly Cloudy 63 17 55 13 77 77 NW 9 15 29.77 1008 10 16 0.00 0.00
2:15 am 02:15 Mostly Cloudy 63 17 55 13 77 77 WNW 12 19 29.77 1008 10 16 0.00 0.00
2:35 am 02:35 Cloudy 63 17 55 13 77 77 WNW 12 19 29.77 1008 10 16 0.00 0.00
2:55 am 02:55 Cloudy 63 17 55 13 77 77 W 9 15 29.77 1008 10 16 0.00 0.00
3:15 am 03:15 Mostly Cloudy 63 17 55 13 77 77 WNW 12 19 29.77 1008 10 16 0.00 0.00
3:35 am 03:35 Partly Cloudy 63 17 55 13 77 77 W 10 17 29.77 1008 10 16 0.00 0.00
3:55 am 03:55 Mostly Cloudy 63 17 55 13 77 77 WNW 8 13 29.77 1008 10 16 0.00 0.00
4:15 am 04:15 Partly Cloudy 63 17 55 13 77 77 NW 8 13 29.77 1008 10 16 0.00 0.00
4:35 am 04:35 Partly Cloudy 61 16 55 13 83 83 WNW 12 19 29.77 1008 10 16 0.00 0.00
4:55 am 04:55 Mostly Cloudy 63 17 55 13 77 77 WNW 12 19 29.77 1008 10 16 0.00 0.00
5:15 am 05:15 Cloudy 63 17 55 13 77 77 WNW 9 15 29.77 1008 10 16 0.00 0.00
5:35 am 05:35 Partly Cloudy 63 17 55 13 77 77 WNW 13 20 29.77 1008 10 16 0.00 0.00
5:55 am 05:55 Clear 63 17 55 13 77 77 W 9 15 29.80 1009 10 16 0.00 0.00
6:15 am 06:15 Clear 61 16 55 13 83 83 NW 6 9 29.80 1009 10 16 0.00 0.00
6:35 am 06:35 Clear 61 16 55 13 83 83 WNW 9 15 29.80 1009 10 16 0.00 0.00
6:55 am 06:55 Partly Cloudy 61 16 55 13 83 83 NNW 7 11 29.80 1009 10 16 0.00 0.00
7:15 am 07:15 Mostly Cloudy 61 16 55 13 83 83 NW 8 13 29.80 1009 10 16 0.00 0.00
7:35 am 07:35 Partly Cloudy 61 16 55 13 83 83 WNW 7 11 29.80 1009 10 16 0.00 0.00
7:55 am 07:55 Sunny 63 17 55 13 77 77 NW 10 17 29.83 1010 10 16 0.00 0.00
8:15 am 08:15 Sunny 61 16 54 12 77 77 NNW 12 19 29.80 1009 10 16 0.00 0.00
8:35 am 08:35 Sunny 63 17 54 12 73 73 NW 12 19 29.80 1009 10 16 0.00 0.00
8:55 am 08:55 Sunny 64 18 54 12 68 68 NW 10 17 29.83 1010 10 16 0.00 0.00
9:15 am 09:15 Sunny 64 18 54 12 68 68 NW 15 24 29.83 1010 10 16 0.00 0.00
9:35 am 09:35 Mostly Cloudy 64 18 54 12 68 68 WNW 14 22 29.83 1010 10 16 0.00 0.00
9:55 am 09:55 Cloudy 66 19 54 12 64 64 WNW 16 26 29.85 1011 10 16 0.00 0.00
10:15 am 10:15 Mostly Cloudy 66 19 54 12 64 64 NW 16 26 29.85 1011 10 16 0.00 0.00
10:35 am 10:35 Partly Cloudy 68 20 54 12 60 60 NNW 12 19 29.85 1011 10 16 0.00 0.00
10:55 am 10:55 Partly Cloudy 68 20 54 12 60 60 NW 15 24 29.85 1011 10 16 0.00 0.00
11:15 am 11:15 Sunny 68 20 54 12 60 60 NW 17 28 29.85 1011 10 16 0.00 0.00
11:35 am 11:35 Sunny 70 21 54 12 57 57 NNW 10 17 29.85 1011 10 16 0.00 0.00
11:55 am 11:55 Mostly Cloudy 70 21 54 12 57 57 NW 17 28 29.88 1012 10 16 0.00 0.00
12:15 pm 12:15 Mostly Cloudy 70 21 52 11 53 53 NNW 15 24 29.88 1012 10 16 0.00 0.00
12:35 pm 12:35 Cloudy 70 21 52 11 53 53 NW 15 24 29.88 1012 10 16 0.00 0.00
12:55 pm 12:55 Cloudy 72 22 54 12 53 53 NW 15 24 29.88 1012 10 16 0.00 0.00
1:15 pm 13:15 Mostly Cloudy 72 22 54 12 53 53 WNW 16 26 29.88 1012 10 16 0.00 0.00
1:35 pm 13:35 Mostly Cloudy 70 21 52 11 53 53 NNW 16 26 29.88 1012 10 16 0.00 0.00
1:55 pm 13:55 Mostly Cloudy 70 21 52 11 53 53 NW 18 30 29.88 1012 10 16 0.00 0.00
2:15 pm 14:15 Partly Cloudy 72 22 52 11 50 50 NW 21 33 29.88 1012 10 16 0.00 0.00
2:35 pm 14:35 Mostly Cloudy 72 22 52 11 50 50 NNW 21 33 29.88 1012 10 16 0.00 0.00
2:55 pm 14:55 Partly Cloudy 70 21 50 10 50 50 NW 16 26 29.88 1012 10 16 0.00 0.00
3:15 pm 15:15 Partly Cloudy 72 22 50 10 47 47 WNW 23 37 29.88 1012 10 16 0.00 0.00
3:35 pm 15:35 Partly Cloudy 72 22 50 10 47 47 NW 21 33 29.88 1012 10 16 0.00 0.00
3:55 pm 15:55 Partly Cloudy 72 22 50 10 47 47 NW 17 28 29.88 1012 10 16 0.00 0.00
4:15 pm 16:15 Partly Cloudy 72 22 50 10 47 47 WNW 20 31 29.88 1012 10 16 0.00 0.00
4:35 pm 16:35 Mostly Cloudy 72 22 50 10 47 47 NW 12 19 29.88 1012 10 16 0.00 0.00
4:55 pm 16:55 Partly Cloudy 72 22 50 10 47 47 WNW 15 24 29.88 1012 10 16 0.00 0.00
5:15 pm 17:15 Sunny 72 22 50 10 47 47 WNW 17 28 29.88 1012 10 16 0.00 0.00
5:35 pm 17:35 Sunny 70 21 48 9 46 46 W 15 24 29.91 1013 10 16 0.00 0.00
5:55 pm 17:55 Partly Cloudy 68 20 50 10 53 53 WNW 13 20 29.91 1013 10 16 0.00 0.00
6:15 pm 18:15 Cloudy 68 20 50 10 53 53 WNW 15 24 29.91 1013 10 16 0.00 0.00
6:35 pm 18:35 Mostly Cloudy 68 20 50 10 53 53 WNW 7 11 29.91 1013 10 16 0.00 0.00
6:55 pm 18:55 Partly Cloudy 66 19 46 8 49 49 W 15 24 29.94 1014 10 16 0.00 0.00
7:15 pm 19:15 Sunny 64 18 46 8 52 52 W 8 13 29.94 1014 10 16 0.00 0.00
7:35 pm 19:35 Clear 63 17 48 9 59 59 W 7 11 29.94 1014 10 16 0.00 0.00
7:55 pm 19:55 Clear 61 16 50 10 68 68 WNW 10 17 29.97 1015 10 16 0.00 0.00
8:15 pm 20:15 Clear 61 16 50 10 68 68 WNW 10 17 29.97 1015 10 16 0.00 0.00
8:35 pm 20:35 Clear 61 16 50 10 68 68 NW 10 17 29.97 1015 10 16 0.00 0.00
8:55 pm 20:55 Clear 61 16 50 10 68 68 NW 9 15 29.97 1015 10 16 0.00 0.00
9:15 pm 21:15 Clear 59 15 50 10 72 72 WNW 6 9 30.00 1016 10 16 0.00 0.00
9:35 pm 21:35 Clear 59 15 50 10 72 72 WNW 6 9 30.00 1016 10 16 0.00 0.00
9:55 pm 21:55 Clear 59 15 50 10 72 72 W 6 9 30.00 1016 10 16 0.00 0.00
10:15 pm 22:15 Partly Cloudy 55 13 52 11 88 88 W 5 7 30.00 1016 10 16 0.00 0.00
10:35 pm 22:35 Partly Cloudy 55 13 52 11 88 88 W 3 6 30.03 1017 10 16 0.00 0.00
10:55 pm 22:55 Clear 55 13 52 11 88 88 W 5 7 30.03 1017 10 16 0.00 0.00
11:15 pm 23:15 Clear 55 13 50 10 82 82 W 5 7 30.03 1017 10 16 0.00 0.00
11:35 pm 23:35 Clear 55 13 50 10 82 82 SSW 7 11 30.03 1017 10 16 0.00 0.00
11:55 pm 23:55 Clear 55 13 50 10 82 82 SSW 6 9 30.03 1017 10 16 0.00 0.00

Powered by AerisWeather